NORTHERN NASSAU  -  Flash Flood Watch Flash Flood Watch     Rip Current Statement Rip Current Statement        NORTHERN QUEENS  -  Flash Flood Watch Flash Flood Watch     Rip Current Statement Rip Current Statement        SOUTHERN NASSAU  -  Flash Flood Watch Flash Flood Watch     Rip Current Statement Rip Current Statement        SOUTHERN QUEENS  -  Flash Flood Watch Flash Flood Watch     Rip Current Statement Rip Current Statement        NORTHEAST SUFFOLK  -  Rip Current Statement Rip Current Statement        NORTHWEST SUFFOLK  -  Rip Current Statement Rip Current Statement        SOUTHEAST SUFFOLK  -  Rip Current Statement Rip Current Statement        SOUTHWEST SUFFOLK  -  Rip Current Statement Rip Current Statement      

Active alerts

Northern Queens
  Details for Northern Queens Flash Flood Watch  +1 additional alert
Southern Queens
  Details for Southern Queens Flash Flood Watch  +1 additional alert
Northern Nassau
  Details for Northern Nassau Flash Flood Watch  +1 additional alert
Southern Nassau
  Details for Southern Nassau Flash Flood Watch  +1 additional alert
Northwest Suffolk
  Details for Northwest Suffolk Rip Current Statement
Southwest Suffolk
  Details for Southwest Suffolk Rip Current Statement
Northeast Suffolk
  Details for Northeast Suffolk Rip Current Statement
Southeast Suffolk
  Details for Southeast Suffolk Rip Current Statement


WXM80 ListenWXM80 Stop

You find our weather info also at:

UK Metoffice

WeatherCloud

Weather Underground

Northeastern Weather Network

AWEKAS

Citizen Weather Observer Program (CWOP)

HAMweather, WeatherForYou, PWS Weather


Weather Underground History page Text

Daily Summary for October 2, 2017 Units:  English    Metric   Both
« Previous Day
Next Day »
Daily Weekly Monthly Yearly Custom
  High: Low: Average:
Temperature: 73.8 °F 48.3 °F 59.4 °F
Dew Point: 54.1 °F 45.8 °F 50 °F
Humidity: 97 % 43 % 73 %
Wind Speed: 5.5 mph 0.0 mph 0.8 mph
Wind Gust: 8.1 mph - -
Wind:- - ESE
Pressure: 30.38 in 30.17 in -
Precipitation: 0.00 in    
Historical Graphs
 
 
Tabular Data for October 2, 2017
Time Temperature Dew Point Pressure Wind Wind Speed Wind Gust Humidity Rainfall Rate (Hourly)
00:01 49.6 °F 46.2 °F 30.17 in Calm     88 % 0.00 in
00:06 49.5 °F 46.1 °F 30.17 in West 0.5 mph 1.2 mph 88 % 0.00 in
00:11 49.5 °F 46.4 °F 30.17 in Calm     89 % 0.00 in
00:16 49.4 °F 46.3 °F 30.17 in West 0.5 mph 2.3 mph 89 % 0.00 in
00:21 49.3 °F 46.2 °F 30.17 in Calm     89 % 0.00 in
00:26 49.3 °F 46.2 °F 30.17 in Calm     89 % 0.00 in
00:31 49.2 °F 46.4 °F 30.17 in West 0.4 mph 1.2 mph 90 % 0.00 in
00:36 49.2 °F 46.4 °F 30.17 in Calm     90 % 0.00 in
00:41 49.2 °F 46.4 °F 30.17 in West 0.4 mph 1.2 mph 90 % 0.00 in
00:46 49.1 °F 46.3 °F 30.17 in Calm     90 % 0.00 in
00:51 49.1 °F 46.6 °F 30.17 in Calm     91 % 0.00 in
00:56 49.0 °F 46.5 °F 30.17 in Calm     91 % 0.00 in
01:01 49.0 °F 46.5 °F 30.17 in Calm     91 % 0.00 in
01:06 49.0 °F 46.2 °F 30.17 in Calm     90 % 0.00 in
01:11 49.0 °F 46.2 °F 30.17 in Calm     90 % 0.00 in
01:16 48.9 °F 46.1 °F 30.17 in Calm     90 % 0.00 in
01:21 48.8 °F 46.0 °F 30.17 in Calm     90 % 0.00 in
01:26 48.8 °F 46.0 °F 30.17 in Calm     90 % 0.00 in
01:31 48.7 °F 45.9 °F 30.17 in Calm     90 % 0.00 in
01:36 48.6 °F 45.8 °F 30.17 in Calm     90 % 0.00 in
01:41 48.6 °F 46.1 °F 30.17 in Calm     91 % 0.00 in
01:46 48.5 °F 46.0 °F 30.17 in Calm     91 % 0.00 in
01:51 48.5 °F 46.0 °F 30.17 in Calm     91 % 0.00 in
01:56 48.5 °F 46.0 °F 30.17 in Calm     91 % 0.00 in
02:02 48.4 °F 45.9 °F 30.17 in Calm     91 % 0.00 in
02:07 48.4 °F 45.9 °F 30.17 in Calm     91 % 0.00 in
02:12 48.3 °F 46.1 °F 30.17 in Calm     92 % 0.00 in
02:17 48.3 °F 46.1 °F 30.17 in Calm     92 % 0.00 in
02:22 48.3 °F 46.1 °F 30.18 in Calm     92 % 0.00 in
02:27 48.3 °F 46.1 °F 30.17 in West 0.8 mph 2.3 mph 92 % 0.00 in
02:32 48.3 °F 46.4 °F 30.17 in West 0.5 mph 1.2 mph 93 % 0.00 in
02:37 48.3 °F 46.4 °F 30.17 in Calm     93 % 0.00 in
02:42 48.3 °F 46.4 °F 30.17 in West 0.4 mph 1.2 mph 93 % 0.00 in
02:47 48.3 °F 46.4 °F 30.18 in Calm     93 % 0.00 in
02:52 48.3 °F 46.4 °F 30.17 in Calm     93 % 0.00 in
02:57 48.4 °F 46.8 °F 30.18 in Calm     94 % 0.00 in
03:02 48.4 °F 46.8 °F 30.17 in Calm     94 % 0.00 in
03:07 48.5 °F 46.9 °F 30.17 in Calm     94 % 0.00 in
03:12 48.6 °F 47.0 °F 30.17 in Calm     94 % 0.00 in
03:17 48.6 °F 47.0 °F 30.17 in Calm     94 % 0.00 in
03:22 48.7 °F 47.1 °F 30.17 in Calm     94 % 0.00 in
03:27 48.8 °F 47.2 °F 30.17 in Calm     94 % 0.00 in
03:32 48.8 °F 47.2 °F 30.17 in Calm     94 % 0.00 in
03:37 48.8 °F 47.2 °F 30.17 in Calm     94 % 0.00 in
03:42 48.8 °F 47.2 °F 30.17 in Calm     94 % 0.00 in
03:47 48.8 °F 47.2 °F 30.17 in Calm     94 % 0.00 in
03:48 48.8 °F 47.2 °F 30.17 in Calm     94 % 0.00 in
03:53 48.8 °F 47.2 °F 30.18 in West 0.4 mph 1.2 mph 94 % 0.00 in
03:58 48.7 °F 47.1 °F 30.18 in West 0.5 mph 1.2 mph 94 % 0.00 in
04:03 48.7 °F 47.1 °F 30.18 in West 0.7 mph 2.3 mph 94 % 0.00 in
04:08 48.7 °F 47.1 °F 30.18 in West 0.1 mph 1.2 mph 94 % 0.00 in
04:13 48.7 °F 47.1 °F 30.18 in Calm     94 % 0.00 in
04:18 48.7 °F 47.3 °F 30.18 in Calm     95 % 0.00 in
04:23 48.7 °F 47.3 °F 30.19 in NNE 0.8 mph 3.5 mph 95 % 0.00 in
04:28 48.8 °F 47.4 °F 30.18 in North 0.1 mph 1.2 mph 95 % 0.00 in
04:33 49.1 °F 47.7 °F 30.19 in North 1.2 mph 3.5 mph 95 % 0.00 in
04:38 49.6 °F 48.5 °F 30.19 in Calm   1.2 mph 96 % 0.00 in
04:43 50.1 °F 49.0 °F 30.18 in North 2.5 mph 5.8 mph 96 % 0.00 in
04:48 50.5 °F 49.4 °F 30.19 in North 0.5 mph 3.5 mph 96 % 0.00 in
04:53 50.8 °F 50.0 °F 30.19 in NE 0.2 mph 3.0 mph 97 % 0.00 in
04:58 51.1 °F 50.0 °F 30.19 in WNW 2.1 mph 4.6 mph 96 % 0.00 in
05:08 51.7 °F 50.6 °F 30.19 in North 1.5 mph 3.5 mph 96 % 0.00 in
05:13 51.9 °F 50.8 °F 30.19 in NNE 4.8 mph 6.0 mph 96 % 0.00 in
05:18 52.3 °F 51.2 °F 30.19 in North 1.4 mph 4.6 mph 96 % 0.00 in
05:23 52.8 °F 51.1 °F 30.19 in NNE 4.9 mph 8.1 mph 94 % 0.00 in
05:28 53.3 °F 51.0 °F 30.19 in North 5.5 mph 8.1 mph 92 % 0.00 in
05:33 53.8 °F 50.6 °F 30.20 in NNW 4.4 mph 5.8 mph 89 % 0.00 in
05:38 54.2 °F 50.7 °F 30.20 in NNE 3.6 mph 8.0 mph 88 % 0.00 in
05:43 54.5 °F 50.4 °F 30.20 in NNE 3.2 mph 6.0 mph 86 % 0.00 in
05:48 54.7 °F 50.3 °F 30.20 in North 3.1 mph 4.6 mph 85 % 0.00 in
05:53 54.9 °F 50.5 °F 30.20 in NNW 2.1 mph 3.0 mph 85 % 0.00 in
05:58 55.0 °F 50.3 °F 30.21 in NNE 1.7 mph 2.3 mph 84 % 0.00 in
06:03 55.1 °F 50.0 °F 30.21 in North 0.2 mph 1.2 mph 83 % 0.00 in
06:09 55.1 °F 50.0 °F 30.21 in NNE 2.6 mph 5.8 mph 83 % 0.00 in
06:14 55.0 °F 49.9 °F 30.21 in NE 2.1 mph 4.0 mph 83 % 0.00 in
06:19 54.9 °F 49.2 °F 30.21 in North 1.2 mph 3.5 mph 81 % 0.00 in
06:24 54.8 °F 49.1 °F 30.22 in Calm   1.2 mph 81 % 0.00 in
06:29 54.7 °F 49.0 °F 30.22 in North 0.3 mph 1.2 mph 81 % 0.00 in
06:30 54.7 °F 49.0 °F 30.22 in North 0.3 mph 1.2 mph 81 % 0.00 in
06:35 54.6 °F 49.2 °F 30.22 in North 0.6 mph 1.2 mph 82 % 0.00 in
06:40 54.5 °F 49.1 °F 30.22 in Calm     82 % 0.00 in
06:45 54.4 °F 49.0 °F 30.23 in Calm     82 % 0.00 in
06:50 54.2 °F 48.8 °F 30.23 in Calm     82 % 0.00 in
06:55 54.0 °F 48.6 °F 30.23 in North 0.1 mph   82 % 0.00 in
07:00 53.7 °F 48.7 °F 30.23 in Calm     83 % 0.00 in
07:05 53.6 °F 48.6 °F 30.23 in North 0.4 mph 3.5 mph 83 % 0.00 in
07:10 53.4 °F 48.7 °F 30.24 in NNW 3.5 mph 5.0 mph 84 % 0.00 in
07:15 53.3 °F 48.9 °F 30.24 in North 1.4 mph 3.5 mph 85 % 0.00 in
07:20 53.3 °F 48.9 °F 30.24 in NNW 1.5 mph 3.5 mph 85 % 0.00 in
07:25 53.3 °F 48.9 °F 30.25 in NNE 2.0 mph 3.5 mph 85 % 0.00 in
07:30 53.4 °F 49.3 °F 30.24 in North 1.8 mph 3.5 mph 86 % 0.00 in
07:35 53.5 °F 49.4 °F 30.24 in North 0.6 mph 3.5 mph 86 % 0.00 in
07:40 53.7 °F 49.6 °F 30.25 in NNE 2.1 mph 3.5 mph 86 % 0.00 in
07:45 53.9 °F 49.8 °F 30.25 in NNE 2.0 mph 4.0 mph 86 % 0.00 in
07:50 54.0 °F 50.2 °F 30.25 in Calm   2.3 mph 87 % 0.00 in
07:55 54.1 °F 50.3 °F 30.25 in ENE 1.2 mph 3.5 mph 87 % 0.00 in
08:00 54.3 °F 49.9 °F 30.25 in North 1.8 mph 6.0 mph 85 % 0.00 in
08:05 54.5 °F 49.8 °F 30.25 in NE 2.1 mph 3.5 mph 84 % 0.00 in
08:10 54.8 °F 50.1 °F 30.25 in NE 1.1 mph 2.3 mph 84 % 0.00 in
08:15 55.1 °F 50.4 °F 30.25 in ENE 1.6 mph 4.0 mph 84 % 0.00 in
08:20 55.4 °F 50.3 °F 30.25 in ENE 1.3 mph 3.5 mph 83 % 0.00 in
08:25 55.8 °F 50.7 °F 30.26 in ENE 2.0 mph 3.5 mph 83 % 0.00 in
08:30 56.2 °F 51.1 °F 30.26 in ENE 2.6 mph 4.6 mph 83 % 0.00 in
08:35 56.5 °F 51.4 °F 30.26 in NE 2.4 mph 3.5 mph 83 % 0.00 in
08:40 56.8 °F 51.4 °F 30.26 in ENE 1.3 mph 7.0 mph 82 % 0.00 in
08:45 57.0 °F 51.2 °F 30.26 in NNE 1.6 mph 3.5 mph 81 % 0.00 in
08:50 57.2 °F 51.1 °F 30.26 in NNE 2.8 mph 4.0 mph 80 % 0.00 in
08:55 57.3 °F 51.2 °F 30.26 in North 2.1 mph 3.5 mph 80 % 0.00 in
09:00 57.4 °F 50.9 °F 30.26 in ENE 1.1 mph 3.5 mph 79 % 0.00 in
09:05 57.6 °F 51.5 °F 30.27 in ENE 2.9 mph 3.5 mph 80 % 0.00 in
09:10 57.7 °F 51.6 °F 30.27 in NE 0.8 mph 3.5 mph 80 % 0.00 in
09:15 57.7 °F 51.2 °F 30.27 in NE 2.2 mph 3.5 mph 79 % 0.00 in
09:20 57.8 °F 51.3 °F 30.27 in ENE 2.0 mph 5.8 mph 79 % 0.00 in
09:25 57.9 °F 51.4 °F 30.27 in NNE 1.7 mph 3.5 mph 79 % 0.00 in
09:30 57.9 °F 51.4 °F 30.28 in NNW 3.2 mph 5.0 mph 79 % 0.00 in
09:35 58.0 °F 51.2 °F 30.28 in NNE 3.0 mph 4.6 mph 78 % 0.00 in
09:37 58.0 °F 50.8 °F 30.28 in ENE 3.1 mph 4.6 mph 77 % 0.00 in
09:42 58.1 °F 51.3 °F 30.28 in East 2.4 mph 5.0 mph 78 % 0.00 in
09:47 58.2 °F 51.4 °F 30.28 in North 1.5 mph 4.0 mph 78 % 0.00 in
09:52 58.3 °F 51.1 °F 30.28 in NNE 2.8 mph 5.8 mph 77 % 0.00 in
09:57 58.4 °F 51.2 °F 30.28 in NE 1.8 mph 3.5 mph 77 % 0.00 in
10:02 58.5 °F 51.3 °F 30.29 in ENE 2.2 mph 7.0 mph 77 % 0.00 in
10:07 58.7 °F 51.5 °F 30.29 in NE 1.5 mph 3.5 mph 77 % 0.00 in
10:12 58.9 °F 51.7 °F 30.29 in ENE 1.1 mph 6.9 mph 77 % 0.00 in
10:17 59.2 °F 51.3 °F 30.29 in NE 2.0 mph 5.8 mph 75 % 0.00 in
10:22 59.7 °F 51.0 °F 30.29 in NE 2.0 mph 4.6 mph 73 % 0.00 in
10:27 60.2 °F 50.8 °F 30.29 in NE 1.5 mph 6.9 mph 71 % 0.00 in
10:32 60.5 °F 50.7 °F 30.29 in NE 2.7 mph 3.5 mph 70 % 0.00 in
10:37 60.8 °F 50.6 °F 30.29 in NE 3.2 mph 4.0 mph 69 % 0.00 in
10:42 60.9 °F 50.3 °F 30.29 in ENE 3.2 mph 5.8 mph 68 % 0.00 in
10:48 61.1 °F 50.8 °F 30.29 in ENE 2.1 mph 3.0 mph 69 % 0.00 in
10:49 61.1 °F 50.5 °F 30.29 in ENE 1.7 mph 4.0 mph 68 % 0.00 in
10:54 61.3 °F 51.0 °F 30.29 in ENE 0.4 mph 1.2 mph 69 % 0.00 in
10:56 61.4 °F 50.3 °F 30.29 in NE 1.7 mph 3.5 mph 67 % 0.00 in
11:01 61.9 °F 51.2 °F 30.29 in ENE 1.2 mph 2.3 mph 68 % 0.00 in
11:06 62.6 °F 51.9 °F 30.29 in NNE 1.0 mph 3.5 mph 68 % 0.00 in
11:11 63.6 °F 52.0 °F 30.29 in NNE 0.6 mph 4.6 mph 66 % 0.00 in
11:16 64.7 °F 51.4 °F 30.29 in NE 0.3 mph 1.2 mph 62 % 0.00 in
11:22 65.8 °F 51.5 °F 30.29 in NNE 3.1 mph 4.6 mph 60 % 0.00 in
11:27 66.7 °F 54.1 °F 30.29 in Calm   1.2 mph 64 % 0.00 in
11:32 67.6 °F 51.8 °F 30.28 in NE 1.4 mph 6.9 mph 57 % 0.00 in
11:37 68.6 °F 53.2 °F 30.28 in NNW 1.0 mph 3.5 mph 58 % 0.00 in
11:42 69.1 °F 52.7 °F 30.28 in North 3.6 mph 6.9 mph 56 % 0.00 in
11:47 69.8 °F 53.9 °F 30.28 in NE 0.1 mph 1.2 mph 57 % 0.00 in
11:52 70.2 °F 52.3 °F 30.28 in North 3.0 mph 3.5 mph 53 % 0.00 in
11:57 70.4 °F 53.0 °F 30.28 in NNW 2.0 mph 3.5 mph 54 % 0.00 in
12:02 70.5 °F 51.0 °F 30.28 in NE 0.1 mph 4.6 mph 50 % 0.00 in
12:07 70.5 °F 52.0 °F 30.28 in Calm   4.6 mph 52 % 0.00 in
12:12 70.7 °F 51.7 °F 30.28 in East 0.3 mph 1.2 mph 51 % 0.00 in
12:17 71.1 °F 54.1 °F 30.28 in NE 1.1 mph 3.0 mph 55 % 0.00 in
12:22 71.6 °F 53.6 °F 30.28 in NNE 1.0 mph 3.5 mph 53 % 0.00 in
12:27 71.7 °F 53.7 °F 30.28 in NNE 0.3 mph 2.3 mph 53 % 0.00 in
12:32 71.7 °F 53.1 °F 30.28 in NNE 1.1 mph 2.3 mph 52 % 0.00 in
12:37 71.7 °F 52.1 °F 30.28 in North 1.3 mph 4.0 mph 50 % 0.00 in
12:42 71.8 °F 53.2 °F 30.28 in Calm   1.2 mph 52 % 0.00 in
12:47 71.9 °F 53.3 °F 30.28 in NNE 0.2 mph 3.5 mph 52 % 0.00 in
12:52 72.0 °F 51.2 °F 30.28 in NE 0.2 mph 2.3 mph 48 % 0.00 in
12:57 72.1 °F 53.5 °F 30.27 in Calm     52 % 0.00 in
13:02 72.2 °F 53.1 °F 30.27 in NE 0.9 mph 2.3 mph 51 % 0.00 in
13:07 72.4 °F 53.8 °F 30.27 in NE 0.8 mph 2.3 mph 52 % 0.00 in
13:12 72.7 °F 52.4 °F 30.27 in Calm     49 % 0.00 in
13:17 73.0 °F 53.3 °F 30.27 in NE 0.2 mph 2.3 mph 50 % 0.00 in
13:23 73.3 °F 53.5 °F 30.26 in NNE 0.1 mph 2.3 mph 50 % 0.00 in
13:28 73.4 °F 51.4 °F 30.26 in NNE 0.9 mph 3.5 mph 46 % 0.00 in
13:33 73.3 °F 49.4 °F 30.26 in North 2.2 mph 4.6 mph 43 % 0.00 in
13:38 73.3 °F 50.1 °F 30.26 in NNE 0.4 mph 3.5 mph 44 % 0.00 in
13:43 73.4 °F 51.9 °F 30.26 in NE 1.4 mph 3.5 mph 47 % 0.00 in
13:48 73.6 °F 49.7 °F 30.26 in NNE 2.1 mph 4.6 mph 43 % 0.00 in
13:53 73.7 °F 51.6 °F 30.25 in ENE 0.5 mph 3.5 mph 46 % 0.00 in
13:58 73.8 °F 51.1 °F 30.25 in NE 0.5 mph 2.3 mph 45 % 0.00 in
14:03 73.8 °F 51.1 °F 30.25 in NNE 1.5 mph 5.0 mph 45 % 0.00 in
14:08 73.7 °F 49.8 °F 30.25 in NE 2.6 mph 3.5 mph 43 % 0.00 in
14:13 73.6 °F 50.3 °F 30.25 in North 2.6 mph 3.5 mph 44 % 0.00 in
14:18 73.5 °F 50.2 °F 30.25 in NNE 2.1 mph 3.5 mph 44 % 0.00 in
14:23 73.5 °F 50.2 °F 30.25 in NNE 0.3 mph 1.2 mph 44 % 0.00 in
14:28 73.6 °F 50.3 °F 30.25 in NE 0.4 mph 1.2 mph 44 % 0.00 in
14:33 73.5 °F 50.9 °F 30.25 in NNE 0.8 mph 2.3 mph 45 % 0.00 in
14:38 73.4 °F 50.2 °F 30.25 in NE 0.5 mph 2.0 mph 44 % 0.00 in
14:44 73.5 °F 50.9 °F 30.25 in Calm   1.2 mph 45 % 0.00 in
14:49 73.4 °F 49.5 °F 30.25 in ENE 1.4 mph 1.4 mph 43 % 0.00 in
14:54 73.2 °F 50.6 °F 30.25 in NNE 0.3 mph 2.3 mph 45 % 0.00 in
14:59 73.0 °F 49.8 °F 30.25 in NNE 0.1 mph 1.2 mph 44 % 0.00 in
15:04 72.8 °F 49.6 °F 30.25 in NNE 0.6 mph 2.3 mph 44 % 0.00 in
15:09 72.7 °F 49.5 °F 30.25 in NNE 0.1 mph 1.2 mph 44 % 0.00 in
15:14 72.5 °F 49.3 °F 30.25 in NE 0.4 mph 2.0 mph 44 % 0.00 in
15:19 72.2 °F 49.1 °F 30.25 in NE 0.7 mph 2.3 mph 44 % 0.00 in
15:24 72.1 °F 48.4 °F 30.25 in NE 0.1 mph 2.3 mph 43 % 0.00 in
15:29 71.9 °F 49.4 °F 30.25 in NE 0.1 mph 1.0 mph 45 % 0.00 in
15:34 71.6 °F 49.1 °F 30.25 in NE 1.6 mph 3.5 mph 45 % 0.00 in
15:39 71.2 °F 49.9 °F 30.25 in NE 0.5 mph 1.2 mph 47 % 0.00 in
15:44 70.7 °F 49.5 °F 30.25 in Calm   2.3 mph 47 % 0.00 in
15:49 70.3 °F 49.1 °F 30.25 in NE 1.8 mph 2.0 mph 47 % 0.00 in
15:54 70.0 °F 49.4 °F 30.25 in NE 0.2 mph 1.2 mph 48 % 0.00 in
15:59 69.7 °F 49.1 °F 30.25 in Calm     48 % 0.00 in
16:04 69.5 °F 47.8 °F 30.25 in NE 0.8 mph 2.3 mph 46 % 0.00 in
16:09 69.3 °F 47.6 °F 30.25 in ENE 1.0 mph 3.5 mph 46 % 0.00 in
16:14 69.1 °F 48.6 °F 30.26 in Calm   1.2 mph 48 % 0.00 in
16:19 68.9 °F 48.9 °F 30.26 in Calm   2.3 mph 49 % 0.00 in
16:24 68.8 °F 48.9 °F 30.26 in Calm   1.2 mph 49 % 0.00 in
16:29 68.7 °F 49.3 °F 30.26 in Calm     50 % 0.00 in
16:33 68.6 °F 49.2 °F 30.26 in Calm     50 % 0.00 in
16:38 68.5 °F 48.6 °F 30.26 in ESE 0.3 mph 1.2 mph 49 % 0.00 in
16:43 68.3 °F 48.9 °F 30.27 in Calm     50 % 0.00 in
16:48 68.2 °F 50.4 °F 30.26 in Calm     53 % 0.00 in
16:54 68.0 °F 49.7 °F 30.27 in Calm     52 % 0.00 in
16:59 67.9 °F 49.6 °F 30.27 in Calm   1.2 mph 52 % 0.00 in
17:04 67.9 °F 49.1 °F 30.27 in Calm   1.0 mph 51 % 0.00 in
17:09 67.8 °F 50.0 °F 30.27 in Calm     53 % 0.00 in
17:14 67.7 °F 49.4 °F 30.27 in Calm     52 % 0.00 in
17:19 67.6 °F 48.8 °F 30.28 in SE 0.3 mph 1.2 mph 51 % 0.00 in
17:24 67.5 °F 49.3 °F 30.27 in Calm     52 % 0.00 in
17:29 67.4 °F 49.2 °F 30.28 in Calm     52 % 0.00 in
17:34 67.2 °F 49.0 °F 30.28 in Calm     52 % 0.00 in
17:39 67.1 °F 48.9 °F 30.28 in Calm   1.2 mph 52 % 0.00 in
17:44 67.0 °F 49.8 °F 30.28 in Calm     54 % 0.00 in
17:49 66.8 °F 50.1 °F 30.28 in Calm     55 % 0.00 in
17:54 66.7 °F 50.5 °F 30.28 in Calm     56 % 0.00 in
17:59 66.5 °F 51.7 °F 30.28 in Calm     59 % 0.00 in
18:04 66.3 °F 52.4 °F 30.29 in Calm     61 % 0.00 in
18:10 66.1 °F 52.3 °F 30.29 in Calm     61 % 0.00 in
18:15 65.8 °F 52.4 °F 30.29 in Calm     62 % 0.00 in
18:20 65.6 °F 52.2 °F 30.29 in Calm     62 % 0.00 in
18:25 65.2 °F 52.7 °F 30.29 in SE 0.2 mph 1.2 mph 64 % 0.00 in
18:30 64.7 °F 52.2 °F 30.29 in SSE 1.9 mph 3.5 mph 64 % 0.00 in
18:35 64.3 °F 52.3 °F 30.29 in SSE 0.5 mph 2.3 mph 65 % 0.00 in
18:40 63.9 °F 52.7 °F 30.29 in SE 0.4 mph 2.0 mph 67 % 0.00 in
18:45 63.5 °F 52.3 °F 30.29 in SSE 0.8 mph 3.5 mph 67 % 0.00 in
18:50 63.3 °F 52.6 °F 30.30 in SE 0.1 mph 1.2 mph 68 % 0.00 in
18:55 63.1 °F 52.8 °F 30.30 in SE 1.1 mph 3.5 mph 69 % 0.00 in
19:00 62.8 °F 52.5 °F 30.30 in SE 0.5 mph 2.3 mph 69 % 0.00 in
19:05 62.6 °F 52.7 °F 30.30 in SE 1.9 mph 3.5 mph 70 % 0.00 in
19:10 62.3 °F 52.4 °F 30.30 in Calm   1.2 mph 70 % 0.00 in
19:15 62.1 °F 52.6 °F 30.30 in Calm   1.2 mph 71 % 0.00 in
19:20 61.8 °F 52.7 °F 30.31 in SE 1.7 mph 3.5 mph 72 % 0.00 in
19:25 61.5 °F 52.4 °F 30.31 in SE 0.4 mph 1.2 mph 72 % 0.00 in
19:30 61.3 °F 52.6 °F 30.31 in SE 1.2 mph 3.5 mph 73 % 0.00 in
19:35 61.0 °F 52.3 °F 30.31 in SE 0.7 mph 2.3 mph 73 % 0.00 in
19:40 60.8 °F 52.1 °F 30.31 in SE 0.6 mph 3.5 mph 73 % 0.00 in
19:45 60.6 °F 51.9 °F 30.32 in SE 0.6 mph 3.5 mph 73 % 0.00 in
19:50 60.5 °F 51.8 °F 30.32 in Calm     73 % 0.00 in
19:55 60.4 °F 52.1 °F 30.32 in SE 0.2 mph 1.0 mph 74 % 0.00 in
20:00 60.3 °F 52.0 °F 30.32 in Calm     74 % 0.00 in
20:05 60.1 °F 52.1 °F 30.32 in Calm   1.2 mph 75 % 0.00 in
20:10 60.0 °F 52.1 °F 30.32 in Calm     75 % 0.00 in
20:15 59.9 °F 52.0 °F 30.32 in Calm     75 % 0.00 in
20:20 59.8 °F 51.9 °F 30.33 in Calm   1.2 mph 75 % 0.00 in
20:25 59.5 °F 51.9 °F 30.33 in Calm   1.2 mph 76 % 0.00 in
20:30 59.4 °F 51.8 °F 30.33 in SE 0.2 mph 1.2 mph 76 % 0.00 in
20:35 59.3 °F 51.7 °F 30.33 in Calm     76 % 0.00 in
20:38 59.3 °F 51.7 °F 30.33 in Calm     76 % 0.00 in
20:43 59.2 °F 51.6 °F 30.33 in Calm   1.2 mph 76 % 0.00 in
20:48 59.0 °F 51.4 °F 30.34 in SE 0.1 mph 1.2 mph 76 % 0.00 in
20:53 58.9 °F 51.3 °F 30.34 in SE 0.3 mph 1.2 mph 76 % 0.00 in
20:58 58.7 °F 51.2 °F 30.34 in SE 0.3 mph 1.2 mph 76 % 0.00 in
21:03 58.5 °F 51.3 °F 30.34 in Calm   1.2 mph 77 % 0.00 in
21:08 58.2 °F 51.0 °F 30.34 in Calm   1.2 mph 77 % 0.00 in
21:13 58.0 °F 51.2 °F 30.35 in Calm   1.2 mph 78 % 0.00 in
21:18 57.8 °F 50.6 °F 30.35 in SE 0.1 mph   77 % 0.00 in
21:23 57.7 °F 50.9 °F 30.35 in Calm     78 % 0.00 in
21:28 57.4 °F 50.6 °F 30.35 in Calm     78 % 0.00 in
21:33 57.2 °F 50.7 °F 30.35 in SE 0.4 mph 1.0 mph 79 % 0.00 in
21:38 57.1 °F 51.0 °F 30.35 in SE 0.1 mph 1.0 mph 80 % 0.00 in
21:44 56.9 °F 50.8 °F 30.35 in SE 0.1 mph 1.2 mph 80 % 0.00 in
21:49 56.7 °F 50.6 °F 30.35 in SE 0.1 mph 1.2 mph 80 % 0.00 in
21:54 56.6 °F 50.8 °F 30.36 in SE 0.4 mph 1.2 mph 81 % 0.00 in
21:59 56.4 °F 50.6 °F 30.36 in SE 0.1 mph 1.0 mph 81 % 0.00 in
22:04 56.2 °F 50.4 °F 30.36 in Calm   1.2 mph 81 % 0.00 in
22:09 56.1 °F 50.3 °F 30.36 in Calm     81 % 0.00 in
22:14 56.0 °F 50.6 °F 30.36 in SE 0.1 mph 1.2 mph 82 % 0.00 in
22:19 55.9 °F 50.5 °F 30.37 in Calm     82 % 0.00 in
22:24 55.8 °F 50.7 °F 30.38 in SE 0.1 mph   83 % 0.00 in
22:29 55.7 °F 50.6 °F 30.38 in SE 0.1 mph 1.2 mph 83 % 0.00 in
22:34 55.6 °F 50.5 °F 30.38 in Calm     83 % 0.00 in
22:39 55.5 °F 50.7 °F 30.38 in Calm     84 % 0.00 in
22:44 55.4 °F 50.6 °F 30.38 in Calm     84 % 0.00 in
22:49 55.3 °F 50.5 °F 30.38 in Calm   1.2 mph 84 % 0.00 in
22:54 55.3 °F 50.5 °F 30.38 in Calm     84 % 0.00 in
22:59 55.2 °F 50.4 °F 30.38 in Calm     84 % 0.00 in
23:05 55.1 °F 50.4 °F 30.38 in Calm     84 % 0.00 in
23:10 55.0 °F 50.6 °F 30.38 in SE 0.3 mph 1.2 mph 85 % 0.00 in
23:17 55.0 °F 50.6 °F 30.38 in Calm   1.2 mph 85 % 0.00 in
23:21 54.9 °F 50.5 °F 30.38 in Calm     85 % 0.00 in
23:25 54.8 °F 50.4 °F 30.38 in Calm     85 % 0.00 in
23:27 54.8 °F 50.4 °F 30.38 in Calm     85 % 0.00 in
23:30 54.7 °F 50.3 °F 30.38 in Calm     85 % 0.00 in
23:40 54.5 °F 50.1 °F 30.38 in Calm     85 % 0.00 in
23:45 54.4 °F 50.0 °F 30.38 in Calm     85 % 0.00 in
23:50 54.3 °F 50.2 °F 30.38 in Calm     86 % 0.00 in
23:55 54.2 °F 50.1 °F 30.38 in Calm     86 % 0.00 in
Crab Meadow Weather
Compliments of Weather Underground - 3 mb

Script developed by  Jim McMurry - jmcmurry@mwt.net Adapted for the template by  Wim van der Kuil - Leuven-Template.eu

Weather Terms: Blizzard Warning - Sustained winds or frequent gusts of 35 mph or greater, considerable falling and/or blowing snow reducing visibility frequently to 1/4 mile or less for a period of three hours or more. There are no temperature criteria in the definition of a blizzard but freezing temperatures and 35 mph winds will create sub-zero wind chills.